Theta_e
278 279 279 279 279 278 279 279 280 280 280 280 281 280 281 282 281 282 282 281 282 282 282 282 282 283 282 283 283 283 283 283 284 283 283 283 283 284 284 283 283 283 284 283 284 284 284 283 284 284 285 285 285 285 285 286 286 287 289 289 288 290 291 291 289 290 294 299 298 299 302 305 312 313 313 313 312 311 309 312 312 312 312 312 313
278 278 278 279 278 278 278 278 278 279 279 279 280 280 280 280 280 281 280 280 281 281 281 281 282 282 281 282 282 282 282 282 283 283 282 282 282 284 284 283 282 282 283 282 283 284 283 283 283 283 284 284 284 284 285 285 285 285 285 286 285 287 291 291 290 291 290 294 295 297 298 302 302 312 315 315 314 310 310 311 311 312 313 313 313
278 278 278 278 278 278 278 278 278 278 278 278 279 279 279 279 280 280 280 280 280 281 281 281 281 281 280 281 281 281 281 281 282 282 282 282 282 282 283 282 282 282 282 282 282 283 282 282 282 283 284 283 283 283 284 284 285 285 284 285 285 286 288 291 291 289 290 290 294 294 295 297 299 303 310 316 317 316 314 313 312 312 311 313 313
278 278 277 277 277 276 277 277 277 277 277 278 278 278 278 279 280 279 279 280 280 280 280 280 280 280 280 280 280 280 280 281 281 281 281 281 281 281 281 281 282 282 282 282 282 282 282 281 282 282 283 282 282 283 283 284 284 284 284 284 285 285 287 289 291 290 290 289 291 292 294 296 297 302 306 312 315 315 315 316 314 312 312 311 312
277 277 277 277 276 276 276 276 276 276 277 277 277 277 277 278 278 279 279 279 279 279 280 280 279 279 280 279 279 279 280 280 280 280 281 281 281 281 281 281 281 281 282 282 283 282 281 281 282 282 282 282 282 282 283 283 283 284 283 284 284 285 286 287 288 289 288 288 289 292 293 295 297 299 303 306 311 314 312 312 314 314 312 312 311
277 277 277 277 277 276 276 276 276 276 276 276 277 277 277 277 277 278 278 278 278 279 279 279 280 279 278 279 279 279 279 279 279 279 280 280 280 280 280 280 281 281 281 282 282 282 281 281 282 282 282 281 281 282 282 282 283 283 283 283 284 285 285 285 286 286 287 288 288 288 291 291 292 294 298 302 305 308 310 310 308 308 309 309 310
277 277 277 276 276 277 276 276 276 276 277 277 277 277 277 277 277 277 277 277 277 278 278 278 279 278 279 279 279 279 279 279 279 279 279 279 279 280 280 280 280 280 281 281 281 281 281 281 281 282 281 282 281 281 282 282 283 282 283 283 284 284 284 284 284 285 286 286 287 288 289 291 292 291 294 299 302 306 308 311 311 309 307 309 309
277 277 276 276 277 277 277 277 277 277 277 276 277 277 277 277 277 277 277 277 277 277 278 278 278 278 279 278 279 279 279 278 279 279 279 279 280 280 280 280 280 280 280 280 280 281 281 281 281 282 282 282 282 282 282 282 282 282 282 283 283 283 283 283 283 284 284 285 285 286 287 288 289 291 294 297 298 301 307 309 308 311 310 307 309
277 277 277 277 278 278 278 277 277 277 277 277 277 277 277 277 277 277 276 277 278 278 278 278 277 277 277 278 278 278 279 279 279 279 279 280 280 280 280 280 280 279 279 279 279 280 280 280 281 281 283 284 284 284 285 285 283 281 282 283 282 282 282 282 283 283 283 284 284 286 286 286 287 289 290 291 293 295 298 301 302 307 310 308 308
277 277 277 278 278 278 278 277 277 277 277 277 277 277 277 277 277 277 277 277 277 277 277 277 277 277 277 277 277 278 279 279 282 283 284 282 281 281 281 280 279 279 279 278 278 279 279 279 281 283 283 283 283 284 284 284 285 284 282 282 282 282 282 282 282 282 283 282 283 284 283 284 285 287 288 290 292 295 295 297 298 303 306 308 310
277 277 278 278 278 278 277 277 277 277 277 277 277 277 277 277 277 277 277 277 277 277 277 277 277 277 277 277 277 278 279 280 282 284 284 285 283 281 280 280 280 279 279 278 278 278 278 279 279 280 281 281 281 283 283 283 284 284 284 285 285 283 281 281 281 282 282 282 283 284 284 284 285 287 288 289 291 292 295 298 299 300 301 303 305
277 278 278 278 278 278 278 277 277 277 277 277 277 277 277 277 277 277 277 277 277 277 277 277 277 277 278 278 278 278 279 282 283 284 284 284 284 282 280 280 280 279 279 278 278 278 277 278 278 279 279 279 280 280 281 282 282 283 283 283 284 285 285 283 282 282 282 282 282 284 284 284 285 286 286 288 290 293 295 294 294 295 297 299 303
277 278 278 278 278 278 278 277 277 277 277 277 277 277 277 277 277 277 277 277 277 277 277 277 277 278 278 277 278 278 278 281 283 283 283 284 284 283 280 280 279 279 278 278 278 277 277 277 277 278 279 281 281 279 278 278 281 282 282 283 283 284 284 285 285 285 285 284 284 284 285 285 285 285 288 290 292 290 290 291 294 297 298 297 298
277 278 278 278 278 278 278 277 277 278 278 277 277 277 277 277 277 277 277 277 277 277 277 277 277 277 277 277 278 278 278 280 282 283 283 283 283 283 280 279 279 278 278 278 277 277 277 277 276 276 277 277 277 277 277 277 277 278 278 279 279 281 283 283 284 285 286 285 284 283 285 287 286 287 289 291 290 289 292 292 292 291 291 291 294
278 278 278 278 278 278 278 278 277 278 277 277 277 277 277 277 276 277 277 276 276 276 277 277 277 277 277 277 277 277 278 281 282 282 282 282 283 282 279 279 278 277 277 277 277 277 277 277 276 276 276 276 277 278 277 277 277 277 277 278 278 279 280 281 281 282 283 284 284 284 285 287 287 288 289 290 291 292 292 291 290 290 291 292 293
278 278 277 278 278 278 278 278 278 277 277 277 277 277 277 276 276 277 276 276 276 276 276 276 276 277 277 276 276 276 276 280 281 281 281 282 282 279 278 277 277 276 276 276 276 276 277 276 276 276 276 276 278 280 280 278 277 277 277 277 278 278 279 283 284 285 284 284 284 285 285 287 288 288 288 289 289 291 291 290 289 289 288 287 287
278 278 278 278 278 278 278 278 277 277 277 277 276 276 276 276 276 276 276 276 276 276 276 277 276 276 276 276 275 275 275 278 280 280 280 281 280 277 277 276 276 276 275 276 276 276 276 276 276 276 276 275 279 280 281 281 277 276 276 276 277 277 278 280 283 284 285 285 286 287 288 288 289 290 289 290 289 291 289 286 285 286 285 284 285
278 278 278 278 278 278 278 277 277 277 277 276 276 276 276 276 276 276 276 276 276 276 276 275 275 275 275 275 275 274 274 276 279 279 280 280 279 276 276 275 275 275 275 275 276 276 276 278 278 276 276 276 279 280 281 280 277 276 276 276 276 276 277 279 281 282 285 286 286 287 287 288 288 288 288 289 290 289 286 283 284 285 283 284 283
278 278 278 279 278 278 277 277 277 277 276 276 276 276 275 276 276 275 275 275 275 275 275 274 274 274 274 274 275 274 274 275 278 278 279 279 279 276 275 274 274 274 274 274 275 275 275 276 278 277 277 278 281 281 282 280 277 277 277 276 276 276 277 279 279 279 280 281 281 282 283 284 285 285 285 287 287 287 286 285 285 283 282 283 284
279 279 279 278 277 277 277 277 276 276 276 275 275 275 275 274 274 274 274 274 274 274 273 273 273 273 274 273 273 273 273 273 274 278 278 279 279 276 275 274 273 273 273 273 273 274 275 275 276 279 280 280 281 281 281 282 279 278 277 276 276 276 278 279 279 280 280 280 280 281 281 282 283 283 283 283 284 284 284 284 284 283 283 284 285
279 278 277 277 277 277 276 276 276 275 275 275 275 273 274 273 273 273 273 273 273 272 272 272 272 272 273 272 272 272 273 272 273 277 277 278 278 277 274 273 273 273 273 273 273 273 274 274 275 278 279 280 280 281 281 281 281 279 278 277 277 279 280 278 279 281 280 280 280 280 281 281 281 281 282 282 282 283 283 284 284 284 285 285 285
277 277 276 276 276 276 276 275 275 276 274 273 273 272 273 273 273 272 272 272 271 271 271 271 271 271 271 272 271 272 272 273 272 274 276 277 277 278 274 273 274 273 273 273 273 273 273 273 274 276 278 279 279 280 280 280 281 278 278 281 282 282 279 279 279 279 279 279 279 279 280 280 280 280 280 280 281 282 282 282 283 283 285 287 287
277 276 276 276 275 276 276 274 274 274 273 272 272 272 272 271 271 271 271 270 270 270 270 270 270 270 270 270 271 271 271 271 273 272 274 275 276 277 277 275 277 274 273 271 272 272 273 273 274 276 277 278 278 279 279 280 279 278 280 281 281 281 281 279 279 278 277 277 277 278 278 279 278 279 278 279 279 280 281 281 282 282 284 285 287
276 275 274 275 275 274 273 272 273 272 272 272 272 272 271 270 270 269 269 269 268 268 268 268 268 268 267 268 269 269 270 270 271 272 272 274 275 276 277 277 277 274 273 272 272 273 273 273 273 276 277 278 278 279 279 279 278 280 281 281 280 280 278 277 276 275 275 275 274 274 275 276 277 277 277 278 278 279 279 280 281 282 283 284 286
273 273 274 274 273 272 271 272 271 271 272 272 271 271 269 267 267 268 267 267 268 267 267 267 266 266 266 266 267 267 268 268 268 270 272 273 274 275 276 276 276 277 273 272 273 273 275 277 277 277 278 278 279 279 278 278 279 279 279 279 277 276 276 275 274 273 272 272 272 272 273 274 275 276 277 278 278 279 279 280 281 281 282 284 285
273 274 273 272 271 270 270 270 270 270 271 271 269 268 267 266 266 266 266 266 266 266 265 265 265 265 265 265 265 266 267 267 267 268 269 270 271 273 274 275 275 275 275 273 276 276 277 277 277 277 276 276 274 273 273 273 276 277 278 277 275 275 274 274 273 272 271 272 272 272 273 275 275 276 277 278 277 277 278 279 280 281 282 284 284
273 272 272 271 270 269 269 269 269 269 269 268 267 265 265 265 265 264 264 264 263 263 263 263 263 263 263 264 264 265 265 266 267 268 268 268 269 270 270 271 273 274 273 272 273 273 274 274 274 275 276 276 276 275 275 275 274 274 274 274 274 273 273 273 272 272 272 272 273 273 274 276 277 277 277 277 276 277 278 279 279 280 281 281 281
272 272 271 270 269 269 268 268 268 267 266 263 263 264 264 264 263 263 263 263 263 263 263 263 263 263 263 263 264 265 266 267 268 268 269 269 270 271 272 272 272 272 272 272 272 273 272 273 274 273 272 272 272 272 272 272 272 273 273 273 273 274 274 275 275 274 274 274 274 275 275 275 275 275 276 276 276 277 279 279 278 278 280 281 281
271 270 269 268 268 267 267 267 266 264 264 262 263 264 263 262 263 264 265 265 263 263 263 264 265 265 266 266 266 266 267 267 268 272 271 274 272 271 271 271 271 271 272 274 272 272 271 270 270 270 270 270 270 270 270 271 271 271 272 272 273 273 273 273 273 273 274 274 274 274 274 275 275 276 276 276 277 278 280 279 280 279 280 281 280
268 268 267 267 267 266 265 264 262 261 261 261 262 262 266 267 267 265 265 268 270 271 272 268 268 269 268 269 269 268 267 269 273 275 274 274 275 275 274 275 275 273 273 275 272 269 268 268 268 268 268 268 268 268 268 269 269 270 271 272 272 271 272 272 273 273 274 274 274 274 274 275 275 276 276 276 276 277 279 279 280 281 281 282 282
267 267 266 265 265 264 263 261 260 260 260 261 260 261 261 262 267 269 269 268 269 270 272 272 273 273 270 268 270 273 273 273 273 273 273 273 274 274 274 274 274 274 274 270 268 267 266 266 266 267 267 267 267 268 268 268 268 268 269 269 270 271 271 271 271 272 272 272 273 274 275 275 275 275 275 275 275 276 277 278 278 279 278 279 279
266 266 266 264 263 263 260 259 258 259 260 259 259 259 259 259 260 265 267 267 268 269 270 271 271 272 272 271 269 267 270 271 272 272 271 271 271 272 272 272 273 273 273 273 267 265 265 265 265 265 266 266 266 267 267 267 267 268 268 268 268 269 270 270 271 271 272 272 272 273 273 273 273 274 274 274 275 276 276 277 278 278 279 279 280
265 264 263 261 260 261 260 258 258 258 258 258 258 258 258 258 258 259 261 265 265 267 268 269 270 270 270 270 270 270 270 270 271 271 269 269 271 269 271 272 272 272 272 267 264 263 263 262 262 262 263 262 263 263 264 264 264 265 266 267 267 269 270 270 271 270 270 270 271 271 271 272 272 273 274 274 274 274 275 276 277 277 278 278 278
264 263 260 259 258 258 258 258 258 258 258 258 258 258 258 258 257 257 258 258 260 262 265 265 265 266 268 269 269 269 269 270 269 267 267 267 269 270 270 267 270 271 268 262 261 260 260 260 260 261 261 262 262 262 262 263 263 263 264 264 264 265 266 267 268 269 270 270 270 270 272 272 272 272 272 273 273 274 273 274 274 274 275 277 278
259 259 261 260 258 258 258 259 259 258 258 257 257 257 257 257 258 258 258 258 257 257 258 259 262 264 263 264 267 268 268 268 268 269 268 269 269 270 269 263 261 260 260 260 260 259 258 258 258 259 259 260 260 261 262 263 263 264 264 265 266 266 267 268 269 270 270 270 271 271 271 271 271 272 273 272 272 272 273 274 275 276 276 277 279
259 258 258 259 258 258 258 256 257 257 257 257 257 257 258 258 258 258 258 258 257 257 257 258 259 261 262 262 262 264 264 266 267 268 268 268 268 268 261 259 258 257 257 257 257 258 258 258 258 258 259 259 259 259 260 260 260 260 261 261 262 263 263 264 265 265 267 268 270 271 272 272 273 273 273 274 274 274 274 275 276 277 278 278 279
257 257 258 257 256 257 256 255 255 257 258 258 257 257 257 257 257 257 257 256 256 257 257 257 257 258 260 260 260 261 262 264 265 266 266 266 267 262 258 257 256 256 256 257 257 258 258 258 259 258 259 259 259 259 260 260 260 261 262 262 262 262 262 263 264 265 266 267 268 269 270 271 272 272 272 272 273 274 275 276 276 277 277 277 279
255 256 254 254 253 254 254 254 255 258 257 256 256 256 256 256 256 256 256 256 256 256 256 256 257 256 255 256 260 259 259 260 260 260 260 260 259 257 257 257 257 256 256 257 257 257 257 258 258 258 259 259 259 260 260 261 261 262 262 263 263 264 265 265 266 266 267 267 268 269 270 271 271 272 273 272 272 273 274 275 276 277 278 278 279
254 257 258 259 259 255 254 254 255 254 254 255 255 255 255 255 255 255 255 255 255 255 255 255 255 255 256 257 257 258 258 256 256 255 256 256 256 257 256 256 256 256 256 257 257 257 257 257 258 258 258 259 259 259 259 259 260 260 261 261 261 262 261 262 263 264 266 266 268 269 269 270 271 272 272 272 273 274 274 275 275 276 276 277 278
254 254 256 258 256 256 256 255 255 255 255 254 254 254 255 255 255 255 255 255 255 255 255 255 255 255 256 257 256 257 256 256 256 256 255 255 255 256 256 255 255 255 255 256 256 256 257 257 257 258 258 259 259 259 260 260 260 260 261 261 261 262 263 264 264 265 266 267 268 269 269 270 271 272 272 273 274 274 275 275 276 277 277 277 277
251 252 255 257 256 255 255 254 254 254 253 254 254 254 254 255 255 255 254 254 255 255 255 255 255 256 257 257 259 259 257 256 256 255 255 255 255 255 255 255 255 255 256 256 256 257 257 257 257 258 258 258 259 259 259 260 260 260 260 260 260 260 260 261 261 261 262 262 263 264 265 265 267 268 268 270 273 274 275 276 276 277 277 278 279
250 251 252 253 254 253 253 253 254 255 254 254 253 253 254 254 254 254 254 255 255 255 254 254 255 255 257 258 258 258 257 256 256 255 255 255 255 255 255 255 256 256 256 256 256 256 256 257 257 258 258 258 258 259 259 259 260 260 260 260 260 260 260 260 261 261 262 262 263 264 265 267 268 270 272 273 273 274 275 276 277 277 277 278 278
251 251 251 253 252 252 252 253 253 252 252 252 253 254 255 255 254 254 254 254 254 254 254 254 254 255 256 257 257 257 256 255 255 255 255 255 255 255 255 255 255 256 256 256 257 257 257 257 257 257 258 258 258 259 259 259 260 260 260 261 261 261 261 262 262 263 264 265 265 266 267 268 268 268 269 270 271 272 272 274 275 276 277 278 278
251 252 253 253 252 252 253 252 252 253 252 254 254 254 254 254 254 253 253 253 253 254 254 254 254 254 254 255 256 255 254 254 254 254 254 255 254 254 255 255 255 256 256 256 257 257 257 257 257 257 258 258 259 259 260 260 261 261 261 261 261 261 261 261 262 262 262 262 263 263 264 266 268 270 271 272 271 271 271 272 273 275 277 278 278
249 250 251 250 250 250 251 251 252 252 253 253 252 252 253 253 253 253 253 253 253 254 254 254 254 254 254 254 254 254 254 254 254 254 254 254 254 255 255 255 256 256 256 256 257 257 257 257 257 257 257 258 259 259 260 260 261 261 261 261 261 261 262 262 263 264 264 264 265 266 266 267 267 267 268 269 270 270 270 271 273 275 276 277 278
249 250 251 250 250 251 251 251 252 252 252 251 251 251 252 252 252 252 253 253 253 253 253 253 254 254 254 253 254 254 254 254 254 254 254 254 255 255 255 256 256 256 256 256 257 257 257 257 258 258 258 258 259 260 260 261 261 261 261 261 261 261 262 262 263 264 264 264 264 264 264 265 265 267 268 268 269 271 273 275 276 277 277 278 279
248 249 250 250 250 251 251 252 251 251 251 251 252 252 252 252 252 253 253 253 253 253 253 253 253 253 253 253 253 253 254 254 254 254 254 255 255 255 256 256 256 256 256 257 257 257 258 258 259 259 259 259 260 260 260 261 261 262 262 262 262 262 262 263 263 263 264 264 265 265 265 265 265 266 267 268 270 271 272 273 273 274 276 278 279
248 249 250 251 249 250 250 249 250 252 251 251 251 251 252 252 252 252 252 252 252 252 252 252 252 252 253 253 253 253 253 254 254 254 255 255 255 256 256 256 257 257 257 257 258 258 259 259 259 259 260 260 260 260 261 261 262 262 262 263 263 263 263 264 263 263 263 263 263 264 264 265 266 267 268 269 270 270 270 270 272 274 275 276 278
248 248 249 249 249 250 250 250 250 250 250 250 250 251 251 251 251 251 251 252 252 252 252 252 252 252 252 253 253 253 254 254 254 254 255 255 256 256 257 257 257 258 258 258 258 259 259 259 260 260 260 260 260 261 261 262 262 262 262 263 263 264 264 264 264 264 265 265 265 266 266 266 267 267 267 268 268 269 270 270 271 272 274 275 276
249 249 249 249 249 250 249 249 249 249 249 249 249 250 250 250 251 251 251 251 251 251 251 251 252 252 252 252 253 253 253 254 254 254 255 255 256 257 257 257 258 258 258 258 259 259 259 260 260 260 260 260 260 261 261 261 262 262 263 263 264 265 265 265 265 265 265 264 264 264 264 264 264 264 265 266 266 267 268 269 271 273 274 275 276
249 249 249 249 249 249 248 248 248 248 248 248 249 249 250 250 250 250 250 250 250 251 251 251 251 252 252 252 253 253 253 254 254 255 255 256 256 257 257 258 258 258 258 259 259 259 260 260 260 260 260 261 261 261 261 261 262 262 263 264 265 265 265 266 265 266 266 265 265 264 264 263 263 263 264 265 266 267 268 270 271 273 274 276 277
Wind_Speed
2 2 1 0 0 1 2 2 2 2 2 2 1 2 2 1 2 2 2 3 3 3 3 4 4 4 4 5 5 6 6 7 7 7 7 8 7 7 8 8 9 8 8 10 9 9 9 11 11 11 11 10 10 11 11 11 12 11 10 10 9 8 9 11 13 18 18 9 13 13 18 20 17 8 10 9 8 7 8 7 6 6 7 7 8
3 3 2 1 1 2 2 2 2 2 2 2 2 2 2 2 2 2 2 3 2 3 3 3 3 4 4 4 5 5 5 6 6 6 7 8 8 6 7 9 10 10 9 10 10 9 10 10 11 12 11 11 11 11 11 13 12 12 11 11 11 9 8 10 12 13 20 16 16 16 14 17 18 17 12 12 10 7 8 8 7 7 7 7 7
4 3 3 2 3 2 3 3 2 3 3 3 3 3 3 3 3 2 3 3 2 2 3 3 3 3 4 4 4 5 5 6 6 6 7 7 8 8 7 8 9 10 11 11 11 10 11 11 11 10 9 12 12 11 11 11 10 11 12 11 12 11 9 8 11 14 17 18 12 15 14 16 15 16 18 15 13 10 9 9 9 8 7 8 8
5 4 4 3 3 3 3 3 3 3 3 3 4 4 3 3 3 3 3 2 3 3 2 3 3 3 3 4 4 4 5 4 5 5 6 7 7 8 8 8 8 8 9 10 11 11 11 12 12 12 11 11 11 10 10 9 10 10 11 10 11 12 10 9 9 12 13 17 16 12 15 13 18 14 13 16 15 12 10 10 7 8 8 8 9
4 5 4 4 3 3 4 4 4 4 4 4 4 4 4 4 3 3 3 4 3 3 4 2 3 3 4 4 4 4 4 4 5 5 5 6 6 7 8 8 9 9 9 9 9 10 12 12 13 12 12 13 11 11 10 12 10 9 11 10 10 10 10 10 11 11 13 15 17 12 13 14 12 15 12 13 14 12 11 10 10 10 8 8 6
5 5 5 4 4 4 5 4 5 5 4 4 5 4 4 4 4 4 3 4 4 4 4 4 4 4 4 4 4 4 4 4 5 6 6 6 6 6 7 8 8 9 10 10 10 10 11 12 12 12 11 12 13 11 11 12 11 10 11 11 10 10 11 11 10 12 13 15 14 16 13 14 15 14 12 11 14 15 13 10 8 7 7 7 7
5 6 5 4 4 5 5 5 5 4 4 5 4 4 4 4 4 5 4 4 4 5 4 4 5 4 5 4 5 5 5 5 6 6 7 6 7 8 9 9 9 8 9 10 9 10 10 10 11 11 11 11 13 12 12 12 11 12 12 12 11 11 12 11 11 12 13 14 15 13 14 13 12 16 15 12 13 12 14 14 12 7 7 9 10
6 5 4 4 5 6 6 5 5 5 5 4 4 5 5 5 5 5 4 4 5 5 6 5 5 4 5 5 5 4 5 5 6 6 7 8 9 9 9 10 10 10 10 9 10 10 10 11 10 11 11 11 11 12 11 11 11 12 11 10 12 13 13 12 12 12 12 13 13 15 13 14 13 12 10 11 14 12 6 9 14 13 9 9 10
5 5 5 6 7 7 6 5 4 4 4 4 4 6 6 5 5 4 4 5 5 5 5 5 5 6 5 5 5 5 5 6 5 6 7 9 8 10 11 10 11 11 10 10 10 10 11 11 11 10 12 17 19 18 16 16 13 14 14 13 14 14 14 13 12 12 12 12 14 13 14 15 13 12 13 11 9 13 14 12 15 15 13 10 10
6 6 7 8 8 7 6 5 5 4 4 6 6 5 5 6 5 5 5 5 5 5 5 5 5 6 6 6 5 5 5 5 7 14 14 10 10 9 10 11 10 10 11 11 11 11 10 11 11 17 20 19 19 19 20 21 21 17 16 14 15 15 15 15 14 12 12 14 14 13 14 16 14 11 12 13 11 12 14 13 14 16 14 14 13
6 7 9 8 7 7 6 7 5 6 6 5 5 6 7 6 5 6 6 6 6 6 5 6 6 6 6 6 7 6 6 6 12 15 17 19 13 11 12 12 11 11 11 11 12 11 11 10 11 13 15 16 15 18 21 23 22 24 24 24 20 17 17 17 16 14 14 14 14 14 13 16 16 11 11 13 12 11 12 11 11 13 14 15 15
7 8 9 7 6 7 7 6 6 7 6 7 7 6 5 5 6 6 6 7 7 5 6 7 6 7 7 6 7 7 7 9 16 17 19 21 19 14 12 12 12 11 11 12 11 11 11 11 10 9 11 13 14 14 17 20 23 24 26 25 25 26 25 20 18 17 15 15 16 14 13 15 15 12 12 12 12 11 10 11 13 12 14 14 14
7 8 8 6 8 8 7 7 7 7 8 8 6 5 6 6 7 7 8 7 4 5 7 7 7 7 7 8 9 8 8 10 16 19 21 22 23 20 12 13 13 13 13 13 12 11 11 10 11 9 9 16 15 14 14 15 19 24 26 27 27 28 27 29 27 20 15 14 15 17 13 14 16 12 7 9 10 14 13 11 10 9 10 13 15
7 9 8 7 8 8 7 7 8 9 8 7 6 6 6 8 7 6 6 5 6 7 6 8 8 7 8 8 9 9 9 10 17 20 22 23 23 21 13 14 13 13 13 13 13 13 12 13 12 12 12 12 12 14 14 14 13 14 14 14 14 17 21 26 26 27 23 17 17 19 17 13 13 12 9 9 13 12 12 13 11 13 13 14 17
8 8 8 8 8 8 8 8 9 9 8 7 6 7 7 7 6 6 6 6 6 7 7 7 7 7 8 8 9 10 9 14 18 22 22 24 25 22 13 12 11 12 12 12 13 14 14 12 14 15 15 13 12 16 16 14 13 14 13 16 14 13 15 14 13 11 13 14 17 20 19 14 14 16 13 10 13 13 11 13 14 14 15 17 16
9 7 7 9 9 9 8 8 9 8 7 7 6 8 7 6 7 6 5 5 5 5 6 6 7 8 8 8 10 12 11 16 20 21 23 24 26 15 11 11 12 12 13 12 11 11 12 13 12 14 15 15 17 26 25 20 17 15 17 16 15 14 15 13 20 19 19 18 17 18 17 16 18 17 16 14 14 15 12 10 11 12 13 14 16
10 9 9 10 10 9 9 9 8 7 7 6 7 7 6 6 6 3 5 5 6 6 7 7 6 8 10 10 11 12 12 13 18 22 24 26 21 11 11 11 11 12 13 12 13 11 12 12 13 14 15 16 22 29 30 28 19 18 18 17 16 13 14 13 20 27 29 31 33 34 34 37 35 34 33 31 21 15 11 12 14 10 11 12 15
10 9 10 11 10 9 8 7 7 7 6 8 8 6 4 4 4 3 5 6 7 7 7 8 8 8 10 11 11 12 13 14 21 23 24 25 22 14 11 11 11 12 12 12 11 12 14 26 24 17 17 18 26 31 30 26 19 17 16 19 16 16 12 12 11 13 22 28 30 31 31 31 30 31 32 30 22 15 12 15 13 9 11 11 16
10 11 12 11 9 7 6 6 7 7 7 7 5 5 4 5 4 3 4 5 7 7 7 8 10 9 9 10 13 14 14 15 20 23 25 24 20 12 11 10 11 12 12 13 11 12 13 16 27 25 23 25 34 33 33 27 19 16 16 16 16 17 14 13 12 11 12 15 17 17 17 17 15 14 13 20 19 17 13 14 13 11 11 14 14
12 11 8 5 5 6 6 6 7 6 6 4 3 4 3 3 3 4 5 5 7 7 8 8 11 11 10 9 10 11 13 14 14 24 24 25 26 17 11 10 12 12 12 11 13 12 13 15 18 26 30 31 31 32 30 30 23 17 14 14 14 18 12 15 13 14 16 16 18 15 16 13 13 12 11 11 11 12 13 13 14 13 12 13 14
9 5 4 4 5 6 5 5 6 5 4 4 3 2 2 3 3 4 6 6 7 8 9 9 10 12 11 10 10 11 11 14 15 22 25 26 27 23 11 11 11 12 11 13 12 14 15 15 13 20 29 30 30 31 32 32 30 21 16 15 16 19 21 16 14 17 16 16 17 15 13 12 12 10 10 10 10 10 11 12 13 13 13 14 15
4 4 4 5 5 5 5 3 4 4 2 2 2 3 2 3 4 5 5 6 9 10 10 9 9 11 10 9 10 11 12 15 14 18 24 26 26 28 17 13 15 14 18 17 18 17 17 17 16 21 30 30 31 32 34 33 34 23 21 30 35 35 26 18 16 13 12 11 12 12 12 11 12 9 9 9 10 9 11 12 13 14 14 14 16
4 4 4 5 5 5 4 5 3 2 1 1 1 4 3 3 5 4 6 8 9 10 11 10 9 11 11 10 9 11 11 11 18 17 22 25 27 27 29 24 27 20 18 19 19 19 17 18 19 27 30 31 31 33 33 35 31 25 34 34 34 36 31 17 14 12 11 11 12 13 11 10 10 11 10 11 11 11 11 11 13 15 15 15 17
4 5 5 5 5 3 3 2 1 0 0 0 1 3 4 4 4 4 5 6 8 9 9 9 9 10 11 11 11 10 10 9 13 20 20 25 27 30 30 30 30 20 18 18 19 19 19 19 19 30 33 33 35 34 34 34 28 35 37 37 35 31 18 13 11 10 11 12 13 13 12 12 10 12 11 12 11 14 13 12 14 16 16 16 17
5 5 5 5 4 3 2 1 0 0 0 1 3 3 5 4 6 5 4 6 7 9 10 8 8 9 10 12 12 11 10 10 11 15 23 25 29 30 31 31 31 31 22 17 18 19 24 34 35 35 35 36 39 38 33 33 37 36 37 36 31 15 11 10 11 9 12 13 13 13 12 12 14 14 14 13 13 11 11 10 12 16 17 18 18
6 6 5 3 3 2 1 0 0 1 2 1 3 3 4 5 6 7 6 7 7 8 9 8 9 9 10 12 12 13 11 11 10 12 12 16 19 26 32 32 32 31 29 24 31 37 36 35 39 39 36 32 25 20 18 19 29 34 35 33 17 11 11 10 11 13 14 14 15 15 14 12 13 12 13 12 12 12 11 12 11 13 12 12 13
6 4 4 3 2 2 1 1 1 2 2 3 3 3 4 4 6 7 7 7 8 7 8 8 9 10 11 11 11 10 13 11 11 10 9 11 12 14 16 17 23 26 20 17 19 17 23 25 23 29 30 37 38 35 32 31 24 21 16 15 13 13 13 12 11 11 11 13 13 14 11 14 11 11 11 11 12 12 10 12 11 13 11 13 15
6 4 3 3 2 2 2 2 3 3 3 3 4 4 4 4 6 8 8 7 7 9 8 9 11 10 10 10 11 10 12 12 12 11 11 11 12 11 12 12 12 9 12 15 15 18 18 21 25 20 16 16 17 13 12 12 15 12 13 13 13 14 17 18 19 16 15 14 14 15 13 12 12 13 11 11 12 11 12 12 12 13 13 10 13
4 3 3 2 2 2 2 2 3 3 4 3 4 5 6 6 7 8 8 6 6 8 9 11 12 10 9 11 12 10 13 14 11 16 20 27 24 19 13 10 11 12 19 31 25 19 14 15 13 15 12 13 15 13 14 13 11 14 14 16 12 16 13 13 13 13 14 14 14 15 14 14 14 14 15 14 13 11 11 11 11 14 13 13 17
4 3 3 3 2 2 2 2 2 3 4 5 6 7 8 10 10 8 10 12 16 19 17 13 13 11 12 11 10 10 12 14 28 35 33 32 34 35 33 34 33 28 32 40 29 18 17 15 12 13 12 12 12 13 14 10 13 11 12 14 15 12 14 13 14 12 14 12 14 14 16 14 17 13 14 13 13 13 13 15 14 15 16 13 12
4 3 3 3 3 3 2 3 3 3 3 4 5 6 9 8 12 17 17 17 20 22 22 23 25 24 17 14 15 26 29 30 31 31 33 32 34 35 36 35 37 37 36 26 19 15 13 17 17 14 13 13 13 15 12 16 13 14 11 13 11 15 16 13 13 13 13 16 15 15 14 15 13 13 12 12 14 13 13 14 14 15 14 14 14
4 4 3 3 2 3 2 2 3 3 4 3 4 5 6 9 13 15 16 15 16 20 22 24 24 22 24 21 17 13 20 27 30 31 32 33 33 35 35 37 37 37 35 35 22 17 14 17 16 16 12 13 16 13 14 12 14 12 14 12 14 13 12 14 12 11 13 15 14 16 13 16 15 15 14 15 14 15 14 15 14 14 14 15 16
3 3 3 3 2 2 2 3 3 3 4 4 5 4 5 6 9 13 16 20 21 18 18 20 21 21 20 20 23 22 24 27 32 32 32 32 34 34 36 38 36 36 36 22 15 17 15 15 16 17 17 18 17 16 15 15 16 17 15 15 14 10 11 12 14 13 13 11 15 12 15 14 13 11 15 11 14 12 13 13 13 11 12 12 12
4 3 3 3 2 2 3 3 3 4 3 4 4 5 5 6 7 8 11 14 18 19 10 7 10 18 24 25 23 23 26 29 30 31 31 32 33 33 33 30 36 35 27 17 14 14 13 12 12 11 12 12 14 12 14 14 13 11 12 15 17 20 20 20 16 16 11 14 12 16 14 16 15 14 11 13 12 13 14 14 14 14 14 15 16
3 3 4 3 3 3 3 3 3 3 3 3 4 5 6 6 6 8 9 10 12 13 17 15 11 11 14 20 28 28 25 26 29 30 32 32 32 33 35 21 18 13 10 6 12 12 15 18 16 17 15 16 16 16 16 15 12 13 13 13 12 11 11 13 12 13 13 14 15 13 12 15 11 15 13 14 12 14 11 14 13 15 15 16 16
3 2 2 2 2 3 3 3 3 4 4 5 4 5 6 6 8 8 8 9 9 12 14 14 13 14 20 20 24 26 25 27 28 29 30 32 31 31 17 12 14 13 10 14 11 14 14 13 14 12 13 10 13 14 16 18 18 17 18 18 18 18 15 17 15 16 16 15 14 15 15 14 15 14 13 14 16 15 14 14 15 14 15 14 13
3 2 2 2 2 3 3 3 3 4 5 5 5 5 6 6 7 7 9 9 10 10 11 12 13 16 13 10 9 19 26 25 28 31 29 27 31 21 12 13 13 14 15 12 12 11 13 13 11 13 12 14 13 13 12 16 13 14 15 17 14 15 16 16 16 15 15 14 15 14 15 12 12 12 12 12 13 12 14 13 15 16 17 18 18
3 3 3 3 2 3 3 4 4 5 5 4 4 5 7 7 7 8 9 9 10 10 12 12 10 12 13 16 13 11 16 21 24 21 17 17 15 10 10 11 13 14 14 15 13 14 12 11 12 12 16 12 15 13 13 12 13 10 12 11 13 13 20 21 22 18 14 15 13 14 11 12 11 13 14 14 12 12 13 14 14 14 16 19 16
2 4 5 6 4 3 3 3 4 3 5 4 5 5 8 8 8 8 8 8 10 10 11 10 11 11 12 12 14 14 14 14 12 13 11 9 8 10 11 12 11 12 14 12 16 14 14 12 14 11 13 13 14 13 14 13 13 14 14 15 14 16 20 19 19 18 16 14 13 12 11 11 10 13 13 14 14 14 14 13 15 15 15 15 14
3 3 3 5 3 3 4 5 4 4 6 5 6 5 6 7 8 8 9 9 10 10 9 11 11 12 12 11 12 13 12 14 12 13 12 13 12 11 9 13 13 14 12 16 12 14 12 15 14 14 15 12 14 13 12 14 14 11 14 13 14 12 11 10 9 11 11 12 13 13 14 14 14 13 13 13 15 14 15 14 15 13 15 14 15
3 3 3 3 4 3 3 4 5 5 4 5 6 6 7 8 8 9 8 10 10 10 11 10 12 12 12 14 21 21 14 15 15 14 13 13 15 13 12 10 12 14 13 12 15 12 14 14 14 12 13 12 12 11 13 13 11 14 14 16 15 17 17 14 12 16 17 16 16 15 15 14 15 13 15 15 17 14 14 12 16 14 16 14 15
4 2 1 2 3 2 3 5 6 6 5 7 6 6 7 8 7 7 9 9 11 11 12 12 12 11 14 21 22 26 18 12 13 11 13 12 13 12 13 13 12 12 12 15 12 16 14 15 14 13 14 13 12 13 12 13 14 12 12 13 14 14 15 16 13 14 11 14 15 15 16 16 17 15 15 14 12 11 12 12 13 12 16 12 13
3 1 2 2 2 3 4 5 4 5 5 5 6 6 8 8 8 9 9 10 9 10 11 12 12 12 13 16 19 22 13 12 11 14 13 12 11 14 13 13 13 13 12 13 14 13 16 14 15 12 15 14 14 14 13 14 12 13 13 12 14 14 15 15 14 14 12 13 11 15 14 12 12 12 13 16 15 15 15 15 15 15 15 15 15
1 1 2 2 3 3 5 4 5 6 5 7 7 8 8 7 7 7 8 10 11 10 11 11 12 12 13 13 13 13 11 11 12 13 13 13 14 11 14 12 13 13 14 14 13 15 14 14 14 14 14 15 14 14 16 13 14 15 13 15 14 17 16 15 11 11 12 13 17 16 15 16 17 15 14 13 10 12 13 14 15 15 13 12 13
1 1 2 3 3 4 5 4 5 6 7 7 5 6 7 6 7 8 8 10 11 11 11 11 11 12 12 12 11 10 12 11 12 12 11 13 13 14 12 14 14 14 14 14 14 13 14 15 14 14 16 14 13 13 13 14 13 12 15 14 16 17 14 10 11 12 15 16 14 11 10 10 11 13 13 15 14 14 14 14 16 16 16 14 13
1 1 4 3 4 6 5 5 6 5 6 6 7 7 7 6 7 8 9 10 10 11 11 11 11 12 11 12 12 12 13 13 12 12 13 13 14 13 15 12 14 13 12 13 14 15 15 14 14 16 15 15 14 11 14 14 14 15 12 13 15 14 17 15 14 13 13 12 13 13 14 14 14 14 17 15 15 16 15 15 15 13 12 13 14
2 2 3 4 4 6 6 6 5 6 6 6 6 7 8 8 8 8 9 10 11 11 11 11 11 11 11 10 11 11 14 11 12 13 13 14 13 16 13 14 14 14 12 14 12 14 14 16 16 13 16 16 15 16 14 13 14 12 14 13 12 14 12 13 14 14 13 13 14 12 14 13 14 15 18 19 16 16 16 14 13 14 14 13 12
3 4 4 5 4 5 5 5 6 7 7 7 6 7 8 8 9 9 9 10 10 10 11 11 11 11 12 11 11 13 11 12 13 13 14 13 13 13 16 16 14 15 14 15 14 14 15 13 14 16 14 17 15 15 14 13 13 11 13 12 12 12 17 18 15 16 15 15 14 16 17 15 15 16 17 16 14 13 14 15 15 12 13 14 14
3 3 4 4 4 5 6 6 7 6 6 7 7 8 8 8 8 9 9 10 10 10 10 11 11 11 11 12 13 11 13 12 12 11 13 13 14 15 15 16 16 16 15 13 15 16 15 16 16 15 17 16 14 16 14 13 13 14 13 14 17 26 30 30 22 16 16 13 12 13 14 14 15 13 13 14 13 14 14 15 15 16 16 15 16
4 4 4 4 5 5 6 6 6 6 7 6 7 8 8 8 9 9 9 10 10 10 10 10 11 10 11 12 11 13 10 12 12 12 12 13 13 12 15 15 16 15 14 18 16 15 15 13 14 15 14 15 14 12 12 13 14 15 14 16 25 29 29 31 32 31 22 15 14 13 12 13 13 13 14 13 15 17 17 18 17 17 15 15 17
5 4 4 4 5 5 6 6 6 6 6 6 6 7 8 8 9 9 9 10 10 11 10 10 10 11 11 11 13 12 13 11 13 12 12 12 15 17 14 16 15 17 16 17 16 15 14 15 15 12 14 15 15 15 13 13 14 15 21 29 31 31 31 28 20 23 30 23 14 13 13 16 17 17 17 17 18 17 20 19 19 17 15 14 16
Wind_Direction
244 236 228 251 304 311 299 303 301 306 321 323 339 329 325 332 319 315 335 338 340 341 345 343 348 350 351 354 359 357 0 357 358 357 356 354 354 350 348 351 351 349 345 343 345 344 343 340 337 335 337 335 335 333 331 332 332 331 331 331 329 339 337 324 316 309 307 317 311 317 318 321 309 275 265 260 258 248 241 244 234 221 223 224 225
238 235 215 219 241 276 279 272 267 284 293 298 306 298 301 293 288 317 325 301 335 324 333 336 344 344 347 347 350 351 350 351 347 350 348 345 344 347 342 345 343 341 343 339 339 338 336 333 333 332 334 331 330 329 329 328 329 328 329 329 326 328 335 321 312 306 305 317 319 317 315 319 312 313 293 280 267 252 248 244 238 228 225 226 224
242 235 225 218 246 253 275 279 290 298 301 292 287 291 289 296 295 299 294 298 302 305 308 321 330 341 344 345 345 345 344 340 338 339 337 336 333 332 335 335 335 334 336 334 333 331 330 330 328 327 326 325 326 322 322 321 322 322 320 322 318 318 319 311 308 307 307 305 311 309 314 313 305 310 311 299 283 268 253 248 239 234 228 225 227
239 236 230 230 238 261 266 269 286 282 285 273 279 275 279 283 290 294 293 293 310 308 303 304 319 328 331 331 333 330 331 325 325 325 322 325 322 322 324 326 323 322 322 323 325 326 324 323 324 323 321 316 315 314 314 313 315 314 314 314 311 310 312 309 301 297 301 302 308 311 307 309 305 305 305 301 291 276 257 254 246 241 233 226 226
228 236 224 233 250 241 255 257 252 260 258 263 260 265 264 269 271 265 282 299 291 302 310 300 295 307 309 303 303 305 303 306 309 308 308 307 307 308 313 315 316 312 312 311 313 316 316 315 314 317 317 312 309 311 309 308 309 309 308 307 304 305 305 304 303 298 298 297 300 301 301 298 294 297 304 310 303 287 270 259 245 239 237 235 231
225 227 221 209 234 237 239 231 231 236 244 249 250 251 257 261 269 274 240 261 280 281 278 286 281 284 286 291 290 291 292 296 292 297 301 302 300 301 301 305 305 307 305 305 306 306 306 306 306 309 309 307 307 306 305 302 307 304 304 302 300 300 299 300 299 300 295 292 297 302 304 303 306 299 307 311 306 304 294 276 275 265 250 251 234
227 221 212 209 230 236 229 227 225 237 239 246 251 255 255 256 256 263 265 254 266 275 276 272 275 273 277 282 289 293 302 301 301 301 301 300 304 305 306 303 301 299 300 299 297 296 294 294 298 299 298 299 299 300 303 304 302 299 299 299 297 295 297 298 299 297 295 296 297 292 296 297 295 301 309 312 296 286 291 297 277 250 241 240 246
225 229 221 228 234 246 240 238 236 240 245 250 258 262 263 261 254 256 261 267 265 267 270 272 274 271 271 272 272 284 285 290 293 294 294 300 304 305 304 305 303 301 299 294 293 294 292 291 288 290 290 291 292 296 299 297 298 295 295 294 296 297 296 297 296 293 293 295 292 298 298 296 298 290 290 309 312 308 310 311 301 291 267 242 233
236 237 238 235 242 240 243 243 236 243 251 255 263 262 261 262 264 265 262 261 263 261 266 270 281 278 270 266 272 269 270 271 272 278 290 294 296 299 302 301 300 299 296 294 293 291 292 293 290 288 289 292 291 289 288 287 292 292 292 295 296 295 293 293 293 292 290 288 290 292 293 293 292 301 308 309 309 309 316 317 300 296 293 278 255
230 243 239 239 242 243 243 247 248 246 253 256 256 262 266 269 269 270 267 263 266 268 268 268 264 272 279 278 270 265 263 266 265 272 281 287 291 292 292 292 290 290 292 293 289 287 285 289 290 293 294 291 288 286 284 284 281 280 288 291 293 291 290 290 288 288 288 287 285 291 290 288 291 298 297 297 302 304 305 308 301 301 301 284 266
231 236 244 241 241 246 246 247 245 249 247 252 256 257 262 264 270 270 271 273 273 274 278 280 276 274 276 279 282 276 274 272 276 285 291 296 296 292 290 289 287 284 283 284 289 291 290 284 287 289 289 289 287 284 286 285 285 284 282 279 278 281 289 286 283 284 284 281 282 281 279 282 286 293 291 297 297 298 295 301 304 307 306 302 290
232 239 242 244 242 242 242 245 246 250 253 252 252 255 259 265 266 266 271 276 274 281 282 274 278 279 278 276 273 277 280 276 284 289 292 294 295 294 293 292 292 288 287 287 288 290 291 290 286 286 287 286 287 288 285 283 284 284 283 281 277 274 272 275 281 281 277 279 278 271 276 279 287 289 291 292 296 296 296 302 298 294 294 292 289
233 245 248 240 244 244 243 240 243 249 248 248 251 256 258 263 264 265 265 264 279 275 269 279 276 275 275 277 278 278 279 281 286 290 291 293 294 294 289 289 290 291 290 289 289 290 291 289 288 281 284 285 286 286 285 285 281 279 279 279 277 274 274 273 270 269 274 268 269 273 264 279 279 278 270 284 296 292 297 284 281 288 300 301 293
231 243 248 246 245 246 246 241 243 246 248 249 247 251 254 253 257 261 269 279 273 274 274 271 273 272 269 272 278 280 281 280 285 287 290 292 293 293 288 287 287 287 289 289 290 289 288 289 288 286 285 283 284 284 283 280 279 274 272 270 272 269 267 268 268 267 266 267 270 270 270 263 268 275 271 283 286 282 283 288 306 303 297 286 291
241 243 244 250 250 249 246 243 246 249 249 249 250 252 252 257 258 259 258 261 268 269 275 277 275 274 275 278 280 281 280 280 286 289 291 293 293 294 289 286 285 284 282 282 282 284 284 281 281 282 284 282 279 280 282 279 274 270 268 269 266 267 269 263 258 256 258 263 266 268 271 265 265 272 276 273 273 276 284 291 293 292 290 289 284
242 244 243 245 246 246 243 245 246 248 250 250 252 256 255 254 261 262 264 267 260 265 268 260 270 274 274 277 282 283 283 284 288 291 293 294 295 293 288 284 284 281 282 278 275 274 276 276 278 279 280 279 279 282 282 282 278 274 273 270 267 265 263 257 263 261 263 265 265 267 269 268 268 268 271 273 277 279 279 283 284 282 288 289 284
239 236 238 243 243 242 239 239 244 248 247 252 252 253 256 261 260 257 275 269 273 275 274 277 277 282 285 282 281 282 285 287 290 293 294 295 297 290 286 283 279 281 277 279 279 276 274 271 271 276 277 277 279 281 282 281 278 276 274 272 269 265 263 265 266 268 270 269 268 268 270 272 271 271 274 276 271 272 283 284 275 281 279 287 286
234 232 236 239 238 237 237 231 237 241 242 244 248 251 250 255 259 263 265 280 283 278 285 286 281 278 279 282 281 286 289 291 293 293 294 295 296 294 289 284 280 277 277 275 276 276 274 280 280 278 278 277 280 282 282 281 277 272 271 273 273 270 262 262 261 259 259 263 265 268 269 270 270 272 273 274 275 280 276 269 273 277 274 273 277
230 229 233 233 235 233 228 224 228 235 237 241 238 246 248 253 266 277 269 275 278 284 284 283 282 279 274 278 286 287 288 290 292 293 295 296 297 291 287 280 281 281 281 282 275 277 277 276 280 279 279 279 281 282 281 280 276 270 270 271 271 272 270 269 264 265 265 266 265 265 264 262 263 263 264 269 271 268 262 267 274 267 266 264 266
229 230 234 233 224 222 218 220 226 226 230 229 220 231 241 261 268 268 274 270 278 282 280 278 280 280 280 280 282 282 287 288 289 294 296 297 297 295 291 288 285 283 283 282 284 276 271 273 273 277 280 282 283 283 283 281 278 273 267 266 266 269 270 268 264 266 268 266 269 264 262 261 263 260 262 263 264 260 261 260 261 259 255 259 261
236 231 218 215 217 222 220 213 217 211 204 208 204 225 236 262 272 270 280 282 281 281 279 279 280 282 284 283 280 281 281 286 290 294 295 296 297 298 293 286 286 286 286 284 281 285 286 283 282 282 286 286 287 286 286 284 282 278 271 264 263 268 271 271 270 263 267 268 268 266 263 260 258 256 260 264 262 262 260 260 260 257 255 256 260
228 207 206 214 218 220 213 196 183 189 187 184 233 254 245 253 271 282 283 285 284 281 282 279 281 284 285 283 280 281 282 283 290 291 293 296 297 298 298 291 290 292 292 290 288 285 283 284 283 283 284 285 285 285 284 284 282 281 276 276 275 275 275 273 272 271 270 271 270 267 266 263 260 258 256 259 259 257 260 263 262 259 253 251 255
204 203 207 216 214 203 185 171 187 166 192 187 224 278 281 280 280 278 280 283 282 284 284 285 286 288 289 287 285 285 287 290 288 290 294 297 298 298 295 294 293 292 289 287 285 283 282 281 281 282 284 284 283 281 281 281 281 277 277 276 276 276 277 276 273 268 265 267 270 270 269 266 267 265 261 264 263 257 256 257 263 264 258 255 254
181 196 206 207 189 180 168 160 142 132 132 221 272 285 289 286 281 275 274 276 283 285 286 287 288 289 292 294 290 287 286 285 289 293 295 297 297 296 295 294 293 288 286 282 284 282 283 281 280 281 281 281 281 281 279 280 278 278 280 281 282 284 283 280 275 273 275 274 272 271 267 264 261 261 261 261 262 265 264 262 264 266 267 267 263
182 198 199 190 180 158 125 126 122 109 225 273 288 280 282 283 284 278 274 275 277 281 285 289 288 289 290 290 291 290 289 289 288 290 291 293 294 294 294 293 292 291 289 284 280 280 280 281 282 283 283 283 284 285 284 282 282 282 282 281 280 274 272 267 269 272 272 270 270 268 264 259 260 262 262 261 264 264 262 261 264 268 267 263 260
188 197 188 176 167 138 146 141 164 198 257 259 254 262 268 278 277 282 280 275 275 277 283 291 288 287 286 287 289 293 291 289 285 285 284 284 287 288 291 292 292 291 289 286 286 286 286 285 285 285 285 283 282 277 272 271 273 275 277 279 278 274 272 271 267 268 265 267 267 266 266 265 260 256 260 260 257 258 261 261 260 259 257 264 268
179 172 176 157 133 134 159 185 230 223 250 262 259 254 257 265 270 275 271 274 277 275 282 285 286 286 285 285 288 290 291 285 284 284 282 282 283 282 282 282 284 288 287 279 281 281 281 281 279 280 281 282 281 280 279 279 279 277 276 274 271 267 264 261 264 263 264 265 264 262 264 266 269 266 259 263 264 262 253 259 259 261 263 267 269
167 172 165 155 159 157 181 224 247 266 258 247 270 274 259 244 251 262 269 268 276 284 284 283 282 282 284 286 286 287 286 286 289 292 291 289 286 283 282 284 285 284 285 288 286 285 283 283 284 282 278 275 273 267 265 264 266 267 266 266 266 264 259 254 255 256 254 256 257 263 262 261 262 260 264 260 262 266 263 259 253 260 252 255 257
137 148 148 138 173 164 194 204 238 260 276 267 252 244 259 265 264 267 256 244 234 255 271 275 274 271 270 276 284 281 288 290 287 299 297 300 301 300 300 298 297 291 292 296 296 292 286 284 280 281 270 274 274 273 269 263 260 263 264 268 266 268 269 266 259 251 252 252 251 252 254 255 255 252 253 252 248 252 250 252 248 256 258 248 252
150 167 159 167 173 174 219 238 246 253 266 278 288 285 254 253 255 263 280 278 272 270 273 272 276 283 284 277 278 283 289 293 298 300 302 302 302 301 299 299 298 298 297 298 298 295 288 283 275 272 273 269 269 268 269 267 270 264 258 259 264 268 269 269 267 268 267 267 268 268 267 262 255 248 244 247 251 252 251 254 255 248 248 246 253
166 175 171 198 192 205 213 249 244 252 262 273 279 286 303 290 274 272 271 278 283 285 284 282 283 284 283 288 290 291 293 296 298 299 300 301 301 302 302 301 299 299 299 300 294 282 283 286 285 279 277 277 271 275 277 280 274 271 266 263 256 256 256 256 260 265 269 270 272 269 269 268 267 266 263 263 266 266 266 261 261 262 263 266 264
181 194 182 185 184 213 233 246 267 272 272 263 265 283 292 303 306 298 294 285 283 286 286 288 286 285 287 290 294 295 296 297 298 299 301 303 304 302 301 299 298 299 299 301 297 293 289 289 287 285 286 280 279 276 274 269 269 265 267 264 262 259 257 256 254 253 254 256 256 258 256 256 257 258 256 258 257 256 256 256 252 250 245 239 240
163 180 182 191 205 227 249 258 260 255 270 279 283 272 285 291 299 307 310 308 301 288 281 281 288 293 292 293 297 298 298 299 300 302 305 304 304 303 301 299 299 301 303 302 296 297 296 295 293 294 295 293 294 295 295 294 294 293 292 292 288 282 273 268 267 264 263 263 269 271 271 272 271 271 271 271 272 272 272 273 276 278 279 278 278
169 173 186 200 209 231 231 243 249 258 249 260 267 281 276 275 282 289 300 309 316 315 303 247 268 296 302 301 299 299 300 302 303 304 305 306 304 303 304 302 302 303 304 302 302 293 292 284 283 280 282 281 281 280 276 276 275 273 274 274 276 275 273 271 264 260 258 255 250 254 256 257 258 258 258 260 257 259 262 266 266 263 260 261 264
144 181 193 197 201 223 232 241 250 260 265 268 271 276 280 279 277 280 283 291 300 298 305 308 299 284 293 303 306 305 305 304 305 307 308 308 308 307 307 304 304 307 299 272 282 281 287 287 286 287 288 289 292 294 293 292 288 285 282 281 283 289 294 291 286 273 260 250 247 245 246 252 249 251 250 251 250 252 248 252 252 253 253 253 250
169 182 206 209 222 232 241 243 254 261 271 275 268 269 271 278 282 281 282 283 279 288 294 293 298 304 301 298 300 301 304 307 307 308 309 308 307 310 307 304 300 293 284 283 276 276 271 269 273 272 271 267 271 272 274 277 277 278 279 281 282 284 286 286 283 283 282 281 281 275 266 255 255 257 255 254 249 248 248 248 251 255 257 255 253
175 202 212 219 215 233 247 248 252 257 268 269 275 279 280 278 277 278 283 279 282 283 281 293 306 307 301 290 282 298 302 306 307 307 308 306 306 308 295 290 285 290 286 283 279 277 276 273 269 273 271 272 268 268 266 269 267 266 269 268 266 268 267 268 268 270 270 268 267 267 268 269 263 260 257 260 260 259 259 257 256 255 256 254 257
179 194 215 220 234 246 245 250 249 274 277 276 272 276 279 278 276 279 280 282 286 288 294 297 296 295 300 303 313 307 305 305 304 298 296 298 299 283 278 277 280 282 287 285 282 282 281 280 282 282 284 282 284 282 281 281 284 281 279 275 271 265 270 266 264 262 261 263 264 265 266 267 268 267 265 260 259 260 257 256 256 255 253 249 245
189 210 217 226 231 227 233 257 269 268 274 268 266 268 277 281 286 284 280 283 286 287 286 288 290 291 294 303 309 310 309 307 310 303 299 285 273 282 282 282 279 280 280 281 285 283 278 279 279 273 273 272 269 266 265 266 265 266 267 270 271 275 276 274 275 276 276 273 269 263 256 251 248 250 250 254 256 256 259 259 259 258 258 261 259
190 209 223 236 239 261 262 265 271 272 269 274 274 266 272 279 281 285 289 291 288 288 285 288 289 291 296 303 303 310 307 302 300 301 301 301 297 290 282 286 286 284 283 285 280 279 281 280 280 278 277 271 273 273 271 272 273 275 277 277 279 278 276 281 282 279 278 281 283 282 279 277 274 275 271 266 262 259 258 256 256 252 253 254 255
192 202 212 236 247 257 271 270 270 266 266 262 267 270 272 277 279 283 286 285 285 286 287 284 287 290 293 291 295 300 299 299 300 301 299 298 299 296 292 284 285 287 283 280 284 282 281 281 280 275 272 272 272 269 272 267 261 261 260 261 260 263 267 266 267 268 269 270 271 276 279 282 284 284 281 277 274 272 268 261 262 259 259 257 255
182 190 213 232 252 260 260 263 260 264 267 272 271 270 274 275 279 281 283 286 288 289 290 288 287 290 292 294 297 302 300 290 293 289 292 292 292 292 291 288 285 282 283 285 285 287 284 281 278 277 278 274 273 270 268 267 267 261 258 255 258 259 261 261 259 261 262 265 265 265 267 265 264 262 262 266 265 267 267 267 263 257 255 249 247
183 195 213 236 237 242 249 261 264 267 273 268 268 273 275 279 281 283 285 284 285 288 289 292 294 296 294 294 298 302 297 290 287 289 290 290 290 291 290 287 288 286 282 281 280 280 283 281 279 274 274 275 271 272 269 267 265 261 261 260 259 256 253 253 250 250 250 252 250 252 252 262 269 277 279 276 271 265 262 262 261 259 259 253 247
182 208 236 250 255 261 262 261 269 267 265 272 278 278 280 279 278 281 284 287 287 288 288 288 292 296 298 300 300 299 293 291 290 291 290 293 293 290 290 291 287 285 284 283 282 281 278 278 276 275 272 272 269 264 266 265 263 266 260 261 257 259 258 258 256 256 260 267 270 272 271 266 264 260 260 263 275 282 285 285 283 280 271 263 256
171 233 260 269 270 265 271 267 269 276 279 286 283 280 278 280 282 283 285 287 289 290 289 290 293 295 297 299 298 296 296 292 291 290 289 291 293 290 288 289 290 287 288 286 284 279 278 276 273 273 275 271 265 262 262 262 259 258 260 260 263 265 264 257 247 242 244 246 248 249 253 258 265 270 269 271 271 276 279 274 270 265 262 258 253
212 236 258 260 272 271 275 281 278 278 284 283 286 290 287 282 281 284 286 286 287 290 292 293 293 294 293 296 298 297 296 297 293 292 293 294 293 290 291 288 289 286 283 286 284 282 279 275 275 277 271 271 267 262 261 262 261 258 253 250 251 254 257 257 262 263 261 262 269 273 271 268 264 263 267 271 272 265 260 264 266 267 272 272 267
224 235 249 259 261 271 273 279 284 285 280 279 281 285 292 291 291 289 285 285 291 291 292 293 295 293 294 293 294 295 297 295 295 295 294 294 291 292 293 292 291 290 287 284 281 281 278 279 276 272 276 275 273 272 267 262 260 256 253 253 251 250 249 248 246 244 248 248 250 249 251 250 256 260 264 265 265 268 272 276 284 288 291 282 275
231 236 247 253 259 271 275 277 279 283 284 284 287 287 290 293 295 292 293 294 293 291 292 292 292 292 294 294 294 294 293 293 295 294 297 295 293 293 295 295 290 291 290 289 287 285 285 281 279 280 278 278 278 275 273 269 263 254 256 253 250 248 250 248 245 243 241 242 242 249 253 257 256 255 252 251 254 261 270 274 272 269 266 271 272
233 236 250 254 262 264 271 279 280 282 286 292 293 291 290 293 290 292 292 292 292 293 291 294 294 295 293 294 297 295 297 296 296 295 298 298 296 296 294 294 294 294 294 290 292 291 288 285 282 280 282 280 276 275 272 270 267 265 259 259 257 256 256 252 250 247 242 239 238 238 239 240 243 249 258 264 266 267 267 273 277 278 276 272 276
243 247 252 261 266 268 272 270 271 276 281 282 284 288 291 290 292 293 293 295 294 293 292 290 290 292 296 298 299 300 300 299 300 298 296 296 295 295 298 297 296 298 298 298 296 292 288 285 281 282 282 282 279 274 270 271 271 269 265 262 265 264 260 254 249 246 243 239 239 241 244 252 256 258 257 259 262 263 264 265 267 267 268 271 270
255 253 258 260 263 270 275 273 276 274 275 277 282 286 290 293 292 293 295 295 295 295 295 294 293 295 297 295 298 299 300 297 297 296 296 298 301 303 300 300 300 299 298 298 295 294 291 290 290 285 285 286 282 281 276 274 273 272 271 271 270 269 267 265 258 245 241 238 236 233 234 239 243 246 249 252 253 254 254 256 259 260 260 263 267